| time (UTC) | temp F | wind direction | speed MPH | gust MPH | rain 1hr in | rain 24hr in | rain mn in | humidity % | barometer mb |
| 20260508012444 | 46 | 322 | 4.0 | 9.0 | 0.00 | 0.00 | 0.00 | 71 | 1013.6 |
| 20260508011931 | 46 | 332 | 3.0 | 9.0 | 0.00 | 0.00 | 0.00 | 71 | 1013.6 |
| 20260508011423 | 46 | 315 | 3.0 | 8.0 | 0.00 | 0.00 | 0.00 | 70 | 1013.4 |
| 20260508010934 | 47 | 305 | 2.0 | 11.0 | 0.00 | 0.00 | 0.00 | 70 | 1013.3 |
| 20260508010426 | 47 | 304 | 4.0 | 11.0 | 0.00 | 0.00 | 0.00 | 69 | 1013.3 |
| 20260508005935 | 48 | 292 | 6.0 | 13.0 | 0.00 | 0.00 | 0.00 | 68 | 1013.2 |
| 20260508005426 | 48 | 309 | 5.0 | 13.0 | 0.00 | 0.00 | 0.00 | 66 | 1013.1 |
| 20260508004955 | 48 | 286 | 6.0 | 14.0 | 0.00 | 0.00 | 0.00 | 61 | 1013.1 |
| 20260508004427 | 48 | 292 | 6.0 | 14.0 | 0.00 | 0.00 | 0.00 | 68 | 1013.0 |
| 20260508003918 | 49 | 284 | 5.0 | 10.0 | 0.00 | 0.00 | 0.00 | 62 | 1012.9 |
| 20260508003426 | 49 | 298 | 3.0 | 11.0 | 0.00 | 0.00 | 0.00 | 66 | 1012.9 |
| 20260508002937 | 49 | 325 | 6.0 | 11.0 | 0.00 | 0.00 | 0.00 | 64 | 1012.8 |
| 20260508002428 | 50 | 282 | 5.0 | 11.0 | 0.00 | 0.00 | 0.00 | 66 | 1012.7 |
| 20260508001921 | 51 | 309 | 6.0 | 11.0 | 0.00 | 0.00 | 0.00 | 58 | 1012.7 |
| 20260508001433 | 51 | 308 | 4.0 | 12.0 | 0.00 | 0.00 | 0.00 | 56 | 1012.5 |
| 20260508000924 | 51 | 270 | 5.0 | 12.0 | 0.00 | 0.00 | 0.00 | 60 | 1012.5 |
| 20260508000419 | 51 | 325 | 4.0 | 11.0 | 0.00 | 0.00 | 0.00 | 61 | 1012.3 |
| 20260507235919 | 51 | 360 | 3.0 | 11.0 | 0.00 | 0.00 | 0.00 | 61 | 1012.2 |
| 20260507235429 | 52 | 311 | 3.0 | 10.0 | 0.00 | 0.00 | 0.00 | 57 | 1012.1 |
| 20260507234920 | 53 | 297 | 4.0 | 15.0 | 0.00 | 0.00 | 0.00 | 53 | 1012.1 |
| 20260507234432 | 53 | 319 | 4.0 | 15.0 | 0.00 | 0.00 | 0.00 | 55 | 1012.0 |
| 20260507233923 | 54 | 294 | 4.0 | 10.0 | 0.00 | 0.00 | 0.00 | 50 | 1012.0 |
| 20260507233435 | 54 | 308 | 4.0 | 12.0 | 0.00 | 0.00 | 0.00 | 50 | 1012.0 |
| 20260507232926 | 54 | 257 | 7.0 | 15.0 | 0.00 | 0.00 | 0.00 | 50 | 1012.0 |
| 20260507232418 | 55 | 258 | 9.0 | 16.0 | 0.00 | 0.00 | 0.00 | 43 | 1011.9 |
| 20260507231929 | 55 | 296 | 9.0 | 16.0 | 0.00 | 0.00 | 0.00 | 46 | 1011.9 |
| 20260507231441 | 55 | 260 | 6.0 | 14.0 | 0.00 | 0.00 | 0.00 | 44 | 1011.8 |
| 20260507230925 | 56 | 297 | 9.0 | 14.0 | 0.00 | 0.00 | 0.00 | 43 | 1011.8 |
| 20260507230419 | 56 | 290 | 7.0 | 15.0 | 0.00 | 0.00 | 0.00 | 43 | 1011.7 |
| 20260507225918 | 56 | 293 | 7.0 | 15.0 | 0.00 | 0.00 | 0.00 | 41 | 1011.7 |
| 20260507225429 | 56 | 306 | 8.0 | 15.0 | 0.00 | 0.00 | 0.00 | 41 | 1011.7 |
| 20260507224918 | 57 | 277 | 7.0 | 15.0 | 0.00 | 0.00 | 0.00 | 44 | 1011.6 |
| 20260507224448 | 57 | 298 | 8.0 | 15.0 | 0.00 | 0.00 | 0.00 | 44 | 1011.6 |
| 20260507223920 | 58 | 295 | 6.0 | 14.0 | 0.00 | 0.00 | 0.00 | 40 | 1011.5 |
| 20260507223426 | 58 | 259 | 5.0 | 9.0 | 0.00 | 0.00 | 0.00 | 38 | 1011.4 |
| 20260507222917 | 58 | 303 | 6.0 | 19.0 | 0.00 | 0.00 | 0.00 | 39 | 1011.5 |
| 20260507222429 | 58 | 274 | 9.0 | 19.0 | 0.00 | 0.00 | 0.00 | 41 | 1011.4 |
| 20260507221920 | 59 | 228 | 6.0 | 12.0 | 0.00 | 0.00 | 0.00 | 38 | 1011.4 |
| 20260507221429 | 59 | 306 | 6.0 | 17.0 | 0.00 | 0.00 | 0.00 | 39 | 1011.3 |
| 20260507220918 | 58 | 17 | 6.0 | 17.0 | 0.00 | 0.00 | 0.00 | 43 | 1011.2 |
| 20260507220429 | 58 | 315 | 7.0 | 14.0 | 0.00 | 0.00 | 0.00 | 41 | 1011.2 |
| 20260507215957 | 58 | 350 | 7.0 | 14.0 | 0.00 | 0.00 | 0.00 | 40 | 1011.2 |
| 20260507215424 | 59 | 286 | 4.0 | 14.0 | 0.00 | 0.00 | 0.00 | 41 | 1011.0 |
| 20260507214935 | 60 | 290 | 8.0 | 16.0 | 0.00 | 0.00 | 0.00 | 39 | 1010.9 |
| 20260507214446 | 60 | 304 | 8.0 | 16.0 | 0.00 | 0.00 | 0.00 | 40 | 1010.9 |
| 20260507213956 | 60 | 249 | 6.0 | 15.0 | 0.00 | 0.00 | 0.00 | 37 | 1011.0 |
| 20260507213421 | 60 | 306 | 8.0 | 14.0 | 0.00 | 0.00 | 0.00 | 39 | 1011.0 |
| 20260507212953 | 60 | 324 | 7.0 | 13.0 | 0.00 | 0.00 | 0.00 | 41 | 1010.8 |
| 20260507212424 | 60 | 267 | 7.0 | 16.0 | 0.00 | 0.00 | 0.00 | 39 | 1010.9 |
| 20260507211931 | 60 | 284 | 10.0 | 16.0 | 0.00 | 0.00 | 0.00 | 42 | 1010.8 |
| 20260507211422 | 60 | 290 | 8.0 | 14.0 | 0.00 | 0.00 | 0.00 | 42 | 1010.9 |
| 20260507210932 | 59 | 286 | 5.0 | 12.0 | 0.00 | 0.00 | 0.00 | 38 | 1010.7 |
| 20260507210423 | 59 | 319 | 7.0 | 12.0 | 0.00 | 0.00 | 0.00 | 41 | 1010.8 |
| 20260507205927 | 59 | 296 | 5.0 | 16.0 | 0.00 | 0.00 | 0.00 | 47 | 1010.8 |
| 20260507205417 | 60 | 238 | 4.0 | 17.0 | 0.00 | 0.00 | 0.00 | 36 | 1010.9 |
| 20260507204926 | 60 | 311 | 7.0 | 17.0 | 0.00 | 0.00 | 0.00 | 38 | 1010.8 |
| 20260507204418 | 60 | 296 | 7.0 | 16.0 | 0.00 | 0.00 | 0.00 | 40 | 1010.9 |
| 20260507203926 | 59 | 323 | 6.0 | 16.0 | 0.00 | 0.00 | 0.00 | 45 | 1010.8 |
| 20260507203417 | 59 | 294 | 12.0 | 16.0 | 0.00 | 0.00 | 0.00 | 40 | 1010.8 |
| 20260507202929 | 60 | 274 | 7.0 | 15.0 | 0.00 | 0.00 | 0.00 | 38 | 1010.8 |
| 20260507202439 | 60 | 304 | 9.0 | 15.0 | 0.00 | 0.00 | 0.00 | 39 | 1010.6 |
| 20260507201929 | 60 | 234 | 6.0 | 13.0 | 0.00 | 0.00 | 0.00 | 36 | 1010.8 |
| 20260507201422 | 61 | 258 | 7.0 | 12.0 | 0.00 | 0.00 | 0.00 | 41 | 1010.8 |
| 20260507200933 | 62 | 51 | 7.0 | 12.0 | 0.00 | 0.00 | 0.00 | 39 | 1010.8 |
| 20260507200425 | 60 | 343 | 6.0 | 15.0 | 0.00 | 0.00 | 0.00 | 38 | 1010.8 |
| 20260507195923 | 61 | 250 | 5.0 | 20.0 | 0.00 | 0.00 | 0.00 | 36 | 1010.9 |
| 20260507195435 | 62 | 333 | 10.0 | 20.0 | 0.00 | 0.00 | 0.00 | 44 | 1011.0 |
| 20260507194926 | 61 | 304 | 4.0 | 11.0 | 0.00 | 0.00 | 0.00 | 36 | 1011.0 |
| 20260507194417 | 61 | 253 | 6.0 | 11.0 | 0.00 | 0.00 | 0.00 | 38 | 1011.2 |
| 20260507193927 | 61 | 313 | 5.0 | 12.0 | 0.00 | 0.00 | 0.00 | 42 | 1011.2 |
| 20260507193418 | 61 | 321 | 6.0 | 13.0 | 0.00 | 0.00 | 0.00 | 39 | 1011.3 |
| 20260507192930 | 61 | 273 | 7.0 | 13.0 | 0.00 | 0.00 | 0.00 | 37 | 1011.5 |
| 20260507192443 | 62 | 258 | 5.0 | 16.0 | 0.00 | 0.00 | 0.00 | 39 | 1011.4 |
| 20260507191928 | 61 | 280 | 8.0 | 16.0 | 0.00 | 0.00 | 0.00 | 38 | 1011.4 |
| 20260507191439 | 61 | 306 | 9.0 | 16.0 | 0.00 | 0.00 | 0.00 | 42 | 1011.4 |
| 20260507190930 | 60 | 303 | 4.0 | 16.0 | 0.00 | 0.00 | 0.00 | 44 | 1011.4 |
| 20260507190421 | 60 | 294 | 8.0 | 15.0 | 0.00 | 0.00 | 0.00 | 47 | 1011.3 |
| 20260507185929 | 60 | 222 | 4.0 | 17.0 | 0.00 | 0.00 | 0.00 | 42 | 1011.3 |
| 20260507185419 | 60 | 201 | 10.0 | 17.0 | 0.00 | 0.00 | 0.00 | 40 | 1011.4 |
| 20260507184930 | 60 | 310 | 4.0 | 14.0 | 0.00 | 0.00 | 0.00 | 48 | 1011.4 |
| 20260507184420 | 60 | 285 | 8.0 | 14.0 | 0.00 | 0.00 | 0.00 | 45 | 1011.6 |
| 20260507183933 | 60 | 218 | 7.0 | 12.0 | 0.00 | 0.00 | 0.00 | 50 | 1011.6 |
| 20260507183420 | 59 | 268 | 6.0 | 11.0 | 0.00 | 0.00 | 0.00 | 44 | 1011.6 |
| 20260507182927 | 60 | 175 | 4.0 | 12.0 | 0.00 | 0.00 | 0.00 | 47 | 1011.5 |
| 20260507182418 | 60 | 259 | 8.0 | 12.0 | 0.00 | 0.00 | 0.00 | 50 | 1011.7 |
| 20260507181928 | 59 | 334 | 6.0 | 12.0 | 0.00 | 0.00 | 0.00 | 45 | 1011.7 |
| 20260507181420 | 59 | 264 | 7.0 | 11.0 | 0.00 | 0.00 | 0.00 | 44 | 1011.7 |
| 20260507180932 | 58 | 294 | 4.0 | 9.0 | 0.00 | 0.00 | 0.00 | 50 | 1011.7 |
| 20260507180443 | 57 | 307 | 4.0 | 14.0 | 0.00 | 0.00 | 0.00 | 46 | 1011.8 |
| 20260507175925 | 57 | 182 | 6.0 | 14.0 | 0.00 | 0.00 | 0.00 | 46 | 1011.8 |
| 20260507175433 | 58 | 242 | 5.0 | 13.0 | 0.00 | 0.00 | 0.00 | 47 | 1011.9 |
| 20260507174926 | 59 | 286 | 5.0 | 13.0 | 0.00 | 0.00 | 0.00 | 47 | 1011.8 |
| 20260507174417 | 58 | 173 | 5.0 | 13.0 | 0.00 | 0.00 | 0.00 | 45 | 1011.9 |
| 20260507173929 | 57 | 317 | 4.0 | 10.0 | 0.00 | 0.00 | 0.00 | 49 | 1012.0 |
| 20260507173419 | 57 | 186 | 4.0 | 13.0 | 0.00 | 0.00 | 0.00 | 46 | 1012.1 |
| 20260507172951 | 58 | 329 | 8.0 | 13.0 | 0.00 | 0.00 | 0.00 | 54 | 1012.1 |
| 20260507172421 | 57 | 272 | 5.0 | 10.0 | 0.00 | 0.00 | 0.00 | 48 | 1012.2 |
| 20260507171934 | 57 | 292 | 4.0 | 9.0 | 0.00 | 0.00 | 0.00 | 47 | 1012.2 |
| 20260507171421 | 57 | 22 | 4.0 | 10.0 | 0.00 | 0.00 | 0.00 | 49 | 1012.3 |
| 20260507170934 | 57 | 208 | 4.0 | 10.0 | 0.00 | 0.00 | 0.00 | 48 | 1012.5 |
| 20260507170503 | 57 | 33 | 5.0 | 14.0 | 0.00 | 0.00 | 0.00 | 49 | 1012.5 |
| 20260507165938 | 57 | 312 | 5.0 | 14.0 | 0.00 | 0.00 | 0.00 | 44 | 1012.6 |
| 20260507165428 | 58 | 282 | 5.0 | 13.0 | 0.00 | 0.00 | 0.00 | 50 | 1012.5 |
| 20260507164920 | 57 | 184 | 6.0 | 13.0 | 0.00 | 0.00 | 0.00 | 47 | 1012.5 |
| 20260507164432 | 57 | 184 | 5.0 | 11.0 | 0.00 | 0.00 | 0.00 | 49 | 1012.6 |
| 20260507163918 | 56 | 210 | 6.0 | 9.0 | 0.00 | 0.00 | 0.00 | 48 | 1012.7 |
| 20260507163450 | 56 | 286 | 4.0 | 11.0 | 0.00 | 0.00 | 0.00 | 45 | 1012.7 |
| 20260507162921 | 58 | 107 | 3.0 | 12.0 | 0.00 | 0.00 | 0.00 | 41 | 1012.7 |
| 20260507162430 | 58 | 326 | 8.0 | 12.0 | 0.00 | 0.00 | 0.00 | 54 | 1012.7 |
| 20260507161942 | 56 | 160 | 2.0 | 12.0 | 0.00 | 0.00 | 0.00 | 45 | 1012.8 |
| 20260507161433 | 56 | 293 | 4.0 | 12.0 | 0.00 | 0.00 | 0.00 | 45 | 1012.8 |
| 20260507160925 | 58 | 360 | 7.0 | 17.0 | 0.00 | 0.00 | 0.00 | 47 | 1012.9 |
| 20260507160417 | 58 | 313 | 10.0 | 17.0 | 0.00 | 0.00 | 0.00 | 52 | 1012.9 |
| 20260507155935 | 56 | 22 | 5.0 | 10.0 | 0.00 | 0.00 | 0.00 | 52 | 1012.9 |
| 20260507155420 | 56 | 240 | 5.0 | 10.0 | 0.00 | 0.00 | 0.00 | 44 | 1013.0 |
| 20260507154932 | 58 | 293 | 5.0 | 10.0 | 0.00 | 0.00 | 0.00 | 45 | 1013.0 |
| 20260507154422 | 58 | 313 | 6.0 | 10.0 | 0.00 | 0.00 | 0.00 | 45 | 1013.0 |
| 20260507153953 | 58 | 178 | 4.0 | 8.0 | 0.00 | 0.00 | 0.00 | 50 | 1013.1 |
| 20260507153425 | 57 | 160 | 4.0 | 9.0 | 0.00 | 0.00 | 0.00 | 49 | 1013.1 |
| 20260507152916 | 57 | 213 | 4.0 | 9.0 | 0.00 | 0.00 | 0.00 | 50 | 1013.2 |
| 20260507152422 | 56 | 311 | 4.0 | 8.0 | 0.00 | 0.00 | 0.00 | 47 | 1013.2 |
| 20260507151933 | 56 | 224 | 3.0 | 12.0 | 0.00 | 0.00 | 0.00 | 45 | 1013.2 |
| 20260507151425 | 56 | 225 | 8.0 | 12.0 | 0.00 | 0.00 | 0.00 | 46 | 1013.3 |
| 20260507150935 | 56 | 334 | 2.0 | 5.0 | 0.00 | 0.00 | 0.00 | 50 | 1013.2 |
| 20260507150426 | 55 | 313 | 3.0 | 8.0 | 0.00 | 0.00 | 0.00 | 46 | 1013.3 |
| 20260507145933 | 56 | 347 | 3.0 | 10.0 | 0.00 | 0.04 | 0.00 | 45 | 1013.4 |
| 20260507145423 | 56 | 297 | 4.0 | 10.0 | 0.00 | 0.04 | 0.00 | 52 | 1013.4 |
| 20260507144935 | 55 | 346 | 2.0 | 10.0 | 0.00 | 0.04 | 0.00 | 49 | 1013.5 |
| 20260507144425 | 54 | 319 | 2.0 | 10.0 | 0.00 | 0.04 | 0.00 | 48 | 1013.7 |
| 20260507143932 | 55 | 284 | 6.0 | 10.0 | 0.00 | 0.04 | 0.00 | 48 | 1013.7 |
| 20260507143443 | 54 | 327 | 3.0 | 9.0 | 0.00 | 0.04 | 0.00 | 52 | 1013.6 |
| 20260507142935 | 54 | 237 | 4.0 | 9.0 | 0.00 | 0.04 | 0.00 | 52 | 1013.7 |
| 20260507142427 | 54 | 256 | 2.0 | 11.0 | 0.00 | 0.04 | 0.00 | 48 | 1013.9 |
| 20260507141956 | 54 | 205 | 6.0 | 11.0 | 0.00 | 0.04 | 0.00 | 52 | 1014.0 |
| 20260507141427 | 55 | 263 | 5.0 | 9.0 | 0.00 | 0.04 | 0.00 | 52 | 1014.1 |
| 20260507140918 | 54 | 289 | 2.0 | 6.0 | 0.00 | 0.04 | 0.00 | 55 | 1014.1 |
| 20260507140429 | 53 | 112 | 2.0 | 6.0 | 0.00 | 0.04 | 0.00 | 55 | 1014.2 |
| 20260507135950 | 53 | 169 | 3.0 | 8.0 | 0.00 | 0.04 | 0.00 | 55 | 1014.3 |
| 20260507135419 | 53 | 294 | 3.0 | 8.0 | 0.00 | 0.04 | 0.00 | 66 | 1014.3 |
| 20260507134930 | 53 | 194 | 4.0 | 10.0 | 0.00 | 0.04 | 0.00 | 56 | 1014.4 |
| 20260507134420 | 53 | 166 | 3.0 | 10.0 | 0.00 | 0.04 | 0.00 | 60 | 1014.4 |
| 20260507133950 | 53 | 276 | 2.0 | 8.0 | 0.00 | 0.04 | 0.00 | 56 | 1014.5 |
| 20260507133420 | 53 | 186 | 5.0 | 9.0 | 0.00 | 0.04 | 0.00 | 57 | 1014.5 |
| 20260507132929 | 52 | 228 | 3.0 | 5.0 | 0.00 | 0.04 | 0.00 | 58 | 1014.7 |
| 20260507132436 | 52 | 244 | 3.0 | 7.0 | 0.00 | 0.04 | 0.00 | 62 | 1014.7 |
| 20260507131927 | 52 | 184 | 3.0 | 7.0 | 0.00 | 0.04 | 0.00 | 64 | 1014.7 |
| 20260507131419 | 52 | 168 | 2.0 | 8.0 | 0.00 | 0.04 | 0.00 | 63 | 1014.6 |
| 20260507130951 | 52 | 145 | 3.0 | 8.0 | 0.00 | 0.04 | 0.00 | 65 | 1014.6 |
| 20260507130420 | 50 | 142 | 3.0 | 6.0 | 0.00 | 0.04 | 0.00 | 63 | 1014.6 |
| 20260507125942 | 50 | 180 | 2.0 | 7.0 | 0.00 | 0.06 | 0.00 | 66 | 1014.6 |
| 20260507125435 | 50 | 202 | 3.0 | 7.0 | 0.00 | 0.06 | 0.00 | 63 | 1014.5 |
| 20260507124939 | 50 | 200 | 5.0 | 7.0 | 0.00 | 0.06 | 0.00 | 63 | 1014.5 |
| 20260507124429 | 49 | 155 | 3.0 | 5.0 | 0.00 | 0.06 | 0.00 | 71 | 1014.5 |
| 20260507123921 | 48 | 207 | 2.0 | 6.0 | 0.00 | 0.06 | 0.00 | 82 | 1014.5 |
| 20260507123451 | 47 | 205 | 4.0 | 6.0 | 0.00 | 0.06 | 0.00 | 86 | 1014.6 |
| 20260507122920 | 46 | 318 | 0.0 | 3.0 | 0.00 | 0.06 | 0.00 | 93 | 1014.6 |
| 20260507122451 | 45 | 331 | 0.0 | 0.0 | 0.00 | 0.06 | 0.00 | 96 | 1014.6 |
| 20260507121922 | 45 | 331 | 0.0 | 0.0 | 0.00 | 0.06 | 0.00 | 96 | 1014.6 |
| 20260507121449 | 44 | 331 | 0.0 | 0.0 | 0.00 | 0.06 | 0.00 | 96 | 1014.6 |
| 20260507120917 | 43 | 331 | 0.0 | 0.0 | 0.00 | 0.06 | 0.00 | 96 | 1014.7 |
| 20260507120428 | 42 | 331 | 0.0 | 0.0 | 0.00 | 0.06 | 0.00 | 96 | 1014.6 |
| 20260507115954 | 41 | 331 | 0.0 | 0.0 | 0.00 | 0.06 | 0.00 | 96 | 1014.7 |
| 20260507115423 | 39 | 331 | 0.0 | 0.0 | 0.00 | 0.06 | 0.00 | 95 | 1014.6 |
| 20260507114934 | 38 | 332 | 0.0 | 0.0 | 0.00 | 0.06 | 0.00 | 94 | 1014.7 |
| 20260507114424 | 37 | 331 | 0.0 | 0.0 | 0.00 | 0.06 | 0.00 | 94 | 1014.7 |
| 20260507113931 | 36 | 331 | 0.0 | 0.0 | 0.00 | 0.06 | 0.00 | 93 | 1014.7 |
| 20260507113422 | 35 | 331 | 0.0 | 0.0 | 0.00 | 0.06 | 0.00 | 92 | 1014.6 |
| 20260507112932 | 35 | 331 | 0.0 | 0.0 | 0.00 | 0.06 | 0.00 | 92 | 1014.6 |
| 20260507112424 | 35 | 331 | 0.0 | 0.0 | 0.00 | 0.06 | 0.00 | 92 | 1014.5 |
| 20260507111937 | 35 | 331 | 0.0 | 0.0 | 0.00 | 0.06 | 0.00 | 92 | 1014.5 |
| 20260507111427 | 35 | 331 | 0.0 | 0.0 | 0.00 | 0.06 | 0.00 | 91 | 1014.5 |
| 20260507110937 | 35 | 331 | 0.0 | 0.0 | 0.00 | 0.06 | 0.00 | 91 | 1014.3 |
| 20260507110444 | 35 | 331 | 0.0 | 0.0 | 0.00 | 0.06 | 0.00 | 91 | 1014.3 |
| 20260507105927 | 35 | 331 | 0.0 | 0.0 | 0.00 | 0.15 | 0.00 | 91 | 1014.2 |
| 20260507105418 | 35 | 331 | 0.0 | 0.0 | 0.00 | 0.15 | 0.00 | 91 | 1014.1 |
| 20260507104949 | 35 | 331 | 0.0 | 0.0 | 0.00 | 0.15 | 0.00 | 90 | 1014.1 |
| 20260507104439 | 35 | 331 | 0.0 | 0.0 | 0.00 | 0.15 | 0.00 | 90 | 1014.0 |
| 20260507103931 | 35 | 331 | 0.0 | 0.0 | 0.00 | 0.15 | 0.00 | 90 | 1014.0 |
| 20260507103443 | 36 | 331 | 0.0 | 0.0 | 0.00 | 0.15 | 0.00 | 90 | 1014.0 |
| 20260507102927 | 36 | 331 | 0.0 | 0.0 | 0.00 | 0.15 | 0.00 | 90 | 1014.0 |
| 20260507102419 | 36 | 331 | 0.0 | 0.0 | 0.00 | 0.15 | 0.00 | 90 | 1014.0 |
| 20260507101930 | 36 | 331 | 0.0 | 0.0 | 0.00 | 0.15 | 0.00 | 90 | 1014.0 |
| 20260507101420 | 36 | 331 | 0.0 | 0.0 | 0.00 | 0.15 | 0.00 | 90 | 1014.0 |
| 20260507100931 | 36 | 331 | 0.0 | 0.0 | 0.00 | 0.15 | 0.00 | 89 | 1014.0 |
| 20260507100421 | 36 | 331 | 0.0 | 0.0 | 0.00 | 0.15 | 0.00 | 89 | 1013.9 |
| 20260507095942 | 37 | 331 | 0.0 | 0.0 | 0.00 | 0.26 | 0.00 | 89 | 1013.8 |
| 20260507095433 | 37 | 331 | 0.0 | 0.0 | 0.00 | 0.26 | 0.00 | 89 | 1013.8 |
| 20260507094921 | 37 | 331 | 0.0 | 0.0 | 0.00 | 0.26 | 0.00 | 89 | 1013.8 |
| 20260507094431 | 37 | 331 | 0.0 | 0.0 | 0.00 | 0.26 | 0.00 | 89 | 1013.8 |
| 20260507093923 | 37 | 331 | 0.0 | 0.0 | 0.00 | 0.26 | 0.00 | 89 | 1013.8 |
| 20260507093434 | 38 | 331 | 0.0 | 0.0 | 0.00 | 0.26 | 0.00 | 89 | 1013.8 |
| 20260507092924 | 38 | 331 | 0.0 | 0.0 | 0.00 | 0.26 | 0.00 | 89 | 1013.9 |
| 20260507092435 | 38 | 331 | 0.0 | 0.0 | 0.00 | 0.26 | 0.00 | 89 | 1013.8 |
| 20260507091926 | 38 | 331 | 0.0 | 0.0 | 0.00 | 0.26 | 0.00 | 89 | 1013.8 |
| 20260507091420 | 38 | 331 | 0.0 | 0.0 | 0.00 | 0.26 | 0.00 | 88 | 1013.8 |
| 20260507090930 | 38 | 331 | 0.0 | 0.0 | 0.00 | 0.26 | 0.00 | 88 | 1013.8 |
| 20260507090416 | 39 | 331 | 0.0 | 0.0 | 0.00 | 0.26 | 0.00 | 88 | 1013.9 |
| 20260507085938 | 39 | 331 | 0.0 | 0.0 | 0.00 | 0.34 | 0.00 | 88 | 1013.9 |
| 20260507085427 | 39 | 331 | 0.0 | 0.0 | 0.00 | 0.34 | 0.00 | 88 | 1014.0 |
| 20260507084918 | 39 | 331 | 0.0 | 0.0 | 0.00 | 0.34 | 0.00 | 88 | 1014.1 |
| 20260507084428 | 40 | 331 | 0.0 | 0.0 | 0.00 | 0.34 | 0.00 | 88 | 1014.0 |
| 20260507083920 | 40 | 331 | 0.0 | 0.0 | 0.00 | 0.34 | 0.00 | 88 | 1014.1 |
| 20260507083432 | 40 | 331 | 0.0 | 0.0 | 0.00 | 0.34 | 0.00 | 88 | 1014.1 |
| 20260507082924 | 41 | 331 | 0.0 | 0.0 | 0.00 | 0.34 | 0.00 | 87 | 1014.1 |
| 20260507082429 | 41 | 331 | 0.0 | 0.0 | 0.00 | 0.34 | 0.00 | 87 | 1014.0 |
| 20260507081920 | 41 | 331 | 0.0 | 0.0 | 0.00 | 0.34 | 0.00 | 87 | 1014.0 |
| 20260507081431 | 42 | 331 | 0.0 | 0.0 | 0.00 | 0.34 | 0.00 | 87 | 1013.9 |
| 20260507080921 | 42 | 331 | 0.0 | 0.0 | 0.00 | 0.34 | 0.00 | 86 | 1014.0 |
| 20260507080451 | 43 | 331 | 0.0 | 0.0 | 0.00 | 0.34 | 0.00 | 86 | 1014.0 |
| 20260507075957 | 43 | 331 | 0.0 | 0.0 | 0.00 | 0.36 | 0.00 | 86 | 1013.9 |
| 20260507075502 | 43 | 331 | 0.0 | 0.0 | 0.00 | 0.36 | 0.00 | 86 | 1013.9 |
| 20260507074933 | 44 | 331 | 0.0 | 0.0 | 0.00 | 0.36 | 0.00 | 87 | 1013.8 |
| 20260507074424 | 44 | 331 | 0.0 | 1.0 | 0.00 | 0.36 | 0.00 | 87 | 1013.8 |
| 20260507073933 | 44 | 331 | 0.0 | 1.0 | 0.00 | 0.36 | 0.00 | 87 | 1013.8 |
| 20260507073442 | 45 | 331 | 1.0 | 1.0 | 0.00 | 0.36 | 0.00 | 87 | 1013.9 |
| 20260507072932 | 45 | 331 | 0.0 | 2.0 | 0.00 | 0.36 | 0.00 | 86 | 1013.8 |
| 20260507072445 | 45 | 331 | 1.0 | 2.0 | 0.00 | 0.36 | 0.00 | 86 | 1013.8 |
| 20260507071931 | 45 | 331 | 0.0 | 2.0 | 0.00 | 0.36 | 0.00 | 86 | 1013.8 |
| 20260507071423 | 46 | 331 | 1.0 | 2.0 | 0.00 | 0.36 | 0.00 | 87 | 1013.9 |
| 20260507070935 | 46 | 331 | 1.0 | 1.0 | 0.00 | 0.36 | 0.00 | 87 | 1013.8 |
| 20260507070444 | 46 | 331 | 0.0 | 1.0 | 0.00 | 0.36 | 0.00 | 87 | 1013.8 |
| 20260507065925 | 46 | 331 | 1.0 | 1.0 | 0.00 | 0.36 | 0.00 | 87 | 1013.8 |
| 20260507065418 | 46 | 332 | 0.0 | 1.0 | 0.00 | 0.36 | 0.00 | 88 | 1013.8 |
| 20260507064931 | 46 | 332 | 0.0 | 2.0 | 0.00 | 0.36 | 0.00 | 87 | 1013.7 |
| 20260507064423 | 46 | 332 | 0.0 | 2.0 | 0.00 | 0.36 | 0.00 | 87 | 1013.7 |
| 20260507063930 | 46 | 332 | 0.0 | 2.0 | 0.00 | 0.36 | 0.00 | 87 | 1013.7 |
| 20260507063423 | 46 | 332 | 0.0 | 1.0 | 0.00 | 0.36 | 0.00 | 87 | 1013.8 |
| 20260507062933 | 47 | 331 | 0.0 | 2.0 | 0.00 | 0.36 | 0.00 | 87 | 1013.9 |
| 20260507062424 | 47 | 331 | 1.0 | 2.0 | 0.00 | 0.36 | 0.00 | 87 | 1013.9 |
| 20260507061955 | 47 | 331 | 1.0 | 3.0 | 0.00 | 0.36 | 0.00 | 87 | 1013.8 |
| 20260507061424 | 47 | 331 | 2.0 | 3.0 | 0.00 | 0.36 | 0.00 | 88 | 1013.9 |
| 20260507060936 | 47 | 336 | 1.0 | 3.0 | 0.00 | 0.36 | 0.00 | 88 | 1013.9 |
| 20260507060426 | 47 | 336 | 1.0 | 5.0 | 0.00 | 0.36 | 0.00 | 87 | 1013.9 |
| 20260507055924 | 47 | 336 | 2.0 | 5.0 | 0.00 | 0.36 | 0.00 | 87 | 1013.8 |
| 20260507055434 | 47 | 322 | 1.0 | 4.0 | 0.00 | 0.36 | 0.00 | 87 | 1013.9 |
| 20260507054925 | 47 | 322 | 2.0 | 4.0 | 0.00 | 0.36 | 0.00 | 87 | 1014.0 |
| 20260507054435 | 48 | 315 | 1.0 | 3.0 | 0.00 | 0.36 | 0.00 | 87 | 1014.0 |
| 20260507053926 | 48 | 315 | 1.0 | 3.0 | 0.00 | 0.36 | 0.00 | 87 | 1014.1 |
| 20260507053417 | 48 | 313 | 1.0 | 2.0 | 0.00 | 0.36 | 0.00 | 87 | 1014.1 |
| 20260507052928 | 48 | 312 | 0.0 | 1.0 | 0.00 | 0.36 | 0.00 | 87 | 1014.2 |
| 20260507052420 | 48 | 313 | 0.0 | 1.0 | 0.00 | 0.36 | 0.00 | 88 | 1014.2 |
| 20260507051947 | 48 | 313 | 0.0 | 1.0 | 0.00 | 0.36 | 0.00 | 88 | 1014.2 |
| 20260507051417 | 48 | 312 | 0.0 | 1.0 | 0.00 | 0.36 | 0.00 | 88 | 1014.3 |
| 20260507050927 | 48 | 313 | 0.0 | 1.0 | 0.00 | 0.36 | 0.00 | 87 | 1014.3 |
| 20260507050417 | 48 | 313 | 0.0 | 0.0 | 0.00 | 0.36 | 0.00 | 87 | 1014.3 |
| 20260507045918 | 48 | 313 | 0.0 | 1.0 | 0.00 | 0.36 | 0.36 | 87 | 1014.3 |
| 20260507045429 | 48 | 313 | 0.0 | 1.0 | 0.00 | 0.36 | 0.36 | 87 | 1014.4 |
| 20260507044921 | 48 | 313 | 1.0 | 1.0 | 0.00 | 0.36 | 0.36 | 87 | 1014.4 |
| 20260507044434 | 48 | 313 | 0.0 | 0.0 | 0.00 | 0.36 | 0.36 | 87 | 1014.4 |
| 20260507043942 | 48 | 312 | 0.0 | 0.0 | 0.00 | 0.36 | 0.36 | 88 | 1014.3 |
| 20260507043432 | 48 | 312 | 0.0 | 0.0 | 0.00 | 0.36 | 0.36 | 88 | 1014.2 |
| 20260507042924 | 48 | 312 | 0.0 | 1.0 | 0.00 | 0.36 | 0.36 | 88 | 1014.2 |
| 20260507042433 | 49 | 312 | 0.0 | 1.0 | 0.00 | 0.36 | 0.36 | 88 | 1014.2 |
| 20260507041943 | 49 | 312 | 0.0 | 1.0 | 0.00 | 0.36 | 0.36 | 88 | 1014.1 |
| 20260507041434 | 49 | 312 | 0.0 | 1.0 | 0.00 | 0.36 | 0.36 | 87 | 1014.2 |
| 20260507040924 | 49 | 313 | 0.0 | 0.0 | 0.00 | 0.36 | 0.36 | 87 | 1014.1 |
| 20260507040417 | 49 | 312 | 0.0 | 1.0 | 0.00 | 0.36 | 0.36 | 87 | 1014.1 |
| 20260507035916 | 49 | 312 | 0.0 | 1.0 | 0.00 | 0.37 | 0.36 | 87 | 1014.0 |
| 20260507035435 | 49 | 312 | 0.0 | 1.0 | 0.00 | 0.37 | 0.36 | 87 | 1014.1 |
| 20260507034925 | 49 | 313 | 0.0 | 1.0 | 0.00 | 0.37 | 0.36 | 87 | 1014.1 |
| 20260507034418 | 49 | 312 | 0.0 | 1.0 | 0.00 | 0.37 | 0.36 | 88 | 1014.2 |
| 20260507033948 | 49 | 312 | 0.0 | 1.0 | 0.00 | 0.37 | 0.36 | 88 | 1014.1 |
| 20260507033420 | 49 | 312 | 0.0 | 1.0 | 0.00 | 0.37 | 0.36 | 88 | 1014.1 |
| 20260507032951 | 49 | 313 | 1.0 | 1.0 | 0.00 | 0.37 | 0.36 | 88 | 1014.2 |
| 20260507032423 | 49 | 312 | 1.0 | 1.0 | 0.00 | 0.37 | 0.36 | 89 | 1014.2 |
| 20260507031950 | 50 | 312 | 0.0 | 0.0 | 0.00 | 0.37 | 0.36 | 90 | 1014.0 |
| 20260507031419 | 50 | 312 | 0.0 | 1.0 | 0.00 | 0.37 | 0.36 | 90 | 1014.0 |
| 20260507030952 | 50 | 312 | 0.0 | 1.0 | 0.00 | 0.37 | 0.36 | 90 | 1014.2 |
| 20260507030423 | 50 | 312 | 0.0 | 1.0 | 0.00 | 0.37 | 0.36 | 90 | 1014.1 |
| 20260507025925 | 50 | 312 | 0.0 | 1.0 | 0.00 | 0.37 | 0.36 | 90 | 1013.9 |
| 20260507025418 | 50 | 312 | 0.0 | 2.0 | 0.00 | 0.37 | 0.36 | 90 | 1013.9 |
| 20260507024929 | 50 | 312 | 0.0 | 2.0 | 0.00 | 0.37 | 0.36 | 90 | 1013.9 |
| 20260507024435 | 50 | 312 | 1.0 | 4.0 | 0.00 | 0.37 | 0.36 | 90 | 1013.9 |
| 20260507023945 | 50 | 312 | 2.0 | 4.0 | 0.00 | 0.37 | 0.36 | 91 | 1013.7 |
| 20260507023436 | 50 | 355 | 1.0 | 4.0 | 0.00 | 0.37 | 0.36 | 91 | 1013.7 |
| 20260507022928 | 50 | 344 | 2.0 | 4.0 | 0.00 | 0.37 | 0.36 | 91 | 1013.7 |
| 20260507022420 | 50 | 318 | 1.0 | 5.0 | 0.00 | 0.37 | 0.36 | 91 | 1013.6 |
| 20260507021930 | 50 | 320 | 2.0 | 5.0 | 0.00 | 0.37 | 0.36 | 91 | 1013.5 |
| 20260507021420 | 50 | 312 | 0.0 | 1.0 | 0.00 | 0.37 | 0.36 | 90 | 1013.7 |
| 20260507020931 | 50 | 312 | 0.0 | 2.0 | 0.00 | 0.37 | 0.36 | 90 | 1013.4 |
| 20260507020418 | 50 | 312 | 0.0 | 2.0 | 0.00 | 0.37 | 0.36 | 90 | 1013.4 |
| 20260507015920 | 50 | 312 | 0.0 | 1.0 | 0.00 | 0.37 | 0.36 | 90 | 1013.3 |
| 20260507015431 | 50 | 312 | 0.0 | 0.0 | 0.00 | 0.37 | 0.36 | 90 | 1013.5 |
| 20260507014923 | 51 | 313 | 0.0 | 0.0 | 0.00 | 0.37 | 0.36 | 90 | 1013.4 |
| 20260507014453 | 51 | 312 | 0.0 | 0.0 | 0.00 | 0.37 | 0.36 | 90 | 1013.2 |
| 20260507013922 | 51 | 312 | 0.0 | 0.0 | 0.00 | 0.37 | 0.36 | 90 | 1013.0 |
| 20260507013436 | 51 | 312 | 0.0 | 0.0 | 0.00 | 0.37 | 0.36 | 90 | 1012.9 |
| 20260507012926 | 51 | 312 | 0.0 | 0.0 | 0.00 | 0.37 | 0.36 | 89 | 1012.9 |